Theta_e
296 297 298 298 300 301 301 302 303 304 304 304 305 305 305 306 307 308 307 307 308 307 307 307 306 306 307 307 308 308 308 308 307 307 307 307 307 308 308 307 308 308 308 308 307 308 309 310 309 307 310 311 308 308 307 310 312 312 316 313 314 316 314 316 317 315 311 311 316 315 314 313 312 312 310 308 309 311 311 311 310 309 309 307 307 306 304 304
297 298 299 300 300 301 302 303 304 304 304 304 305 305 306 307 307 307 307 307 307 307 307 307 307 307 308 308 308 308 308 308 307 307 307 308 308 308 308 307 308 309 308 308 308 308 309 313 310 308 313 311 306 308 310 309 310 319 317 311 319 322 316 316 316 315 311 310 312 311 311 312 311 311 309 308 312 311 312 311 309 311 311 308 306 305 305 304
298 299 300 301 301 302 304 304 304 304 304 305 305 306 306 307 307 307 307 307 307 308 307 307 309 309 309 308 309 308 308 308 307 306 308 308 308 308 308 308 308 308 308 308 309 308 308 310 306 307 314 311 307 311 314 310 310 318 314 314 326 322 315 314 314 313 312 310 310 311 311 311 311 309 308 309 312 311 311 311 310 314 314 311 309 306 304 303
299 300 301 302 303 304 304 304 304 304 305 305 306 307 307 307 307 307 307 307 308 308 307 308 308 309 310 309 309 308 308 310 308 306 308 308 308 308 308 307 308 308 308 308 308 308 307 305 304 309 312 310 315 314 310 310 310 311 312 320 324 313 312 314 313 313 313 310 309 310 310 309 308 307 308 309 311 311 310 311 312 313 312 311 310 307 303 302
300 301 302 303 304 304 304 304 304 304 306 306 307 307 307 308 307 307 308 307 308 308 307 309 309 310 309 309 309 308 310 311 307 306 308 309 308 308 308 307 308 308 308 308 308 307 306 304 306 315 314 309 317 315 307 309 308 309 316 321 317 309 309 312 313 313 312 310 309 310 309 308 306 307 311 311 311 311 310 310 311 312 311 309 308 307 304 306
301 302 303 304 304 304 304 304 304 305 306 307 307 307 308 307 307 307 308 307 308 308 308 310 310 310 309 310 308 307 311 309 305 308 308 308 309 308 309 308 308 307 308 308 307 307 307 308 308 314 318 312 312 310 309 311 308 311 319 317 314 311 309 312 313 312 311 308 309 309 307 307 308 309 310 311 311 310 309 310 310 311 308 305 305 306 306 309
302 303 303 304 304 304 304 304 305 305 306 307 307 307 307 307 307 307 307 308 307 308 309 311 311 309 309 310 307 310 313 308 305 308 308 309 309 308 309 308 308 307 308 308 306 309 311 313 312 312 316 314 311 310 311 313 310 311 318 319 317 311 309 312 309 309 309 307 307 305 305 306 308 309 307 308 309 308 308 308 307 307 304 303 305 307 306 306
303 303 304 304 304 304 304 305 305 306 307 307 307 307 307 307 307 307 308 308 308 309 310 311 310 309 310 310 311 317 315 308 307 308 308 309 309 309 309 308 309 308 307 307 306 309 311 311 311 310 313 311 310 312 310 312 314 313 317 320 317 312 312 312 309 313 313 308 305 302 306 308 307 306 306 308 308 306 306 306 306 306 305 305 306 307 306 306
303 304 304 304 304 304 304 305 306 306 307 307 307 308 308 308 307 308 308 307 308 309 310 312 310 309 310 309 314 319 312 307 309 309 308 308 308 309 309 308 308 308 307 307 306 307 309 310 310 310 312 310 308 312 311 311 314 315 316 317 315 312 312 310 310 315 312 307 304 304 309 310 306 304 307 310 309 308 306 306 306 306 305 305 304 304 305 306
304 304 304 304 304 304 304 305 306 307 307 308 308 308 309 308 307 308 307 308 309 310 312 312 309 309 309 309 313 315 309 309 309 308 308 307 308 309 309 309 308 308 308 307 307 307 308 310 310 309 311 311 308 310 311 310 311 314 314 314 313 311 310 310 311 312 308 307 306 306 308 308 305 304 310 313 309 308 307 306 305 304 304 302 302 302 302 304
304 304 305 304 304 305 305 306 306 307 307 308 308 309 309 308 308 308 308 309 309 310 312 312 311 310 308 310 313 311 308 309 309 308 308 307 307 308 309 309 308 308 309 308 308 308 308 307 305 307 309 309 309 309 311 310 308 310 312 312 314 310 308 309 310 308 307 308 308 305 306 305 303 305 313 313 307 305 305 305 303 303 303 302 302 302 301 302
304 305 304 305 305 305 305 306 307 308 308 308 309 309 309 309 309 308 309 310 310 311 312 313 313 310 310 312 312 310 308 308 308 308 308 307 307 308 309 309 309 309 308 309 308 308 309 307 307 312 310 308 310 310 311 310 308 311 310 312 318 314 309 307 307 308 306 308 309 307 309 308 306 311 315 311 306 304 304 304 303 301 301 301 301 301 301 301
305 305 304 305 305 305 306 307 307 308 308 309 309 309 309 309 309 309 309 310 310 311 311 312 312 310 313 315 310 308 308 308 308 308 307 308 307 308 309 308 309 308 308 308 308 308 309 307 309 313 310 310 311 306 307 310 310 311 307 311 320 316 312 306 304 310 307 307 310 308 312 313 310 311 309 307 306 304 304 303 301 300 300 300 301 300 300 300
305 305 305 305 305 305 307 307 308 308 309 309 309 310 310 309 310 309 309 310 311 311 311 313 312 310 313 313 309 308 309 308 307 307 307 307 308 308 309 309 309 308 308 307 307 308 308 306 308 311 308 310 309 305 311 316 313 312 309 315 318 312 313 310 305 311 309 308 311 307 312 315 310 309 306 306 305 303 304 303 300 300 300 300 299 299 299 299
305 305 305 305 305 306 307 308 308 309 310 310 310 310 310 310 310 309 310 310 311 311 310 311 310 312 316 312 308 309 308 308 307 306 306 307 308 308 309 309 308 308 308 307 308 308 308 307 310 312 310 308 309 311 320 323 318 315 313 319 318 310 313 311 306 311 308 308 311 308 313 315 310 309 307 304 302 302 302 301 300 300 299 299 298 297 297 297
305 305 305 305 306 307 308 308 309 310 310 310 310 310 310 311 311 311 311 310 312 311 310 310 309 313 317 310 307 309 307 307 307 306 306 307 307 308 309 309 308 308 308 307 308 308 307 309 308 307 310 311 309 314 327 330 325 317 311 314 318 313 313 309 307 309 306 306 310 309 310 312 310 308 306 302 301 301 300 299 299 299 298 297 296 296 296 296
305 305 305 305 306 308 309 309 309 310 310 310 310 309 309 310 311 311 311 311 312 310 308 309 307 310 312 309 308 309 307 307 307 305 306 307 307 309 309 308 307 306 308 308 308 308 307 308 307 306 309 311 308 313 328 325 319 318 313 313 315 311 310 310 307 307 306 307 309 309 307 309 309 305 303 302 301 299 298 298 297 297 296 296 295 295 295 295
305 305 305 306 308 309 309 309 310 310 310 310 310 310 309 309 309 310 310 310 311 311 311 310 309 311 312 310 308 308 306 307 307 305 305 307 307 309 308 308 305 305 313 313 309 311 310 310 313 312 309 308 308 312 317 311 307 313 313 313 314 310 309 310 308 307 307 306 306 307 308 309 306 303 303 301 298 297 296 296 296 295 295 295 295 294 294 295
305 305 305 307 308 309 310 311 311 310 311 311 310 310 309 309 310 309 307 308 311 313 312 311 310 312 311 309 307 306 306 307 307 304 304 306 307 308 307 306 306 309 321 321 313 314 314 315 317 316 312 309 310 309 309 308 307 310 309 309 312 311 310 308 307 308 305 306 310 309 308 308 306 304 302 299 296 295 295 295 295 295 294 294 294 294 294 294
305 305 306 309 309 310 311 311 310 311 311 311 311 311 313 319 319 313 310 310 310 308 310 311 309 309 309 309 306 306 307 307 305 304 304 305 306 308 306 310 315 314 318 321 316 312 312 318 317 312 312 310 308 307 307 308 306 307 309 310 311 309 308 306 305 307 305 308 314 311 307 308 307 303 299 297 295 295 295 294 294 294 294 294 293 293 293 293
305 305 308 309 310 311 309 308 309 309 310 310 311 312 313 317 317 312 311 310 306 303 308 308 306 306 307 306 305 305 307 307 305 303 304 305 307 309 308 315 323 314 311 312 313 312 313 318 314 309 308 306 306 307 307 308 307 308 310 311 312 308 306 304 303 305 304 306 310 308 308 308 304 300 297 296 295 295 294 294 294 294 293 293 293 292 292 292
305 307 309 309 310 310 308 308 309 308 309 309 309 310 309 309 310 309 310 311 306 303 307 306 304 306 306 305 305 305 306 307 307 304 303 305 307 311 312 315 319 315 313 313 316 323 320 314 311 309 307 305 306 308 308 310 309 309 309 308 310 307 305 305 305 305 303 304 310 308 307 308 302 297 296 296 295 294 294 294 293 293 293 292 292 292 292 292
305 308 309 310 311 309 308 309 308 308 309 308 308 308 308 308 309 308 309 312 307 305 309 310 307 307 308 306 304 306 307 307 308 304 302 305 307 311 315 314 315 317 316 315 317 322 318 311 310 308 307 306 308 310 310 309 309 307 306 306 308 307 305 306 307 306 303 303 308 308 308 309 301 296 296 296 296 294 293 294 293 293 293 292 292 292 291 291
306 309 308 310 310 309 309 308 308 309 308 308 308 307 308 309 309 308 310 313 308 306 308 307 306 307 307 306 304 308 310 306 307 304 301 305 307 311 313 310 313 316 313 312 315 316 313 310 307 306 310 308 306 311 310 308 308 306 306 307 307 305 304 305 305 304 304 302 303 306 311 310 300 296 297 296 295 294 293 293 292 292 292 292 292 291 291 291
308 309 308 309 310 309 309 308 309 309 308 308 308 308 308 309 309 308 313 318 311 307 307 305 305 306 305 305 304 306 309 306 305 304 301 303 306 311 311 306 309 312 311 310 313 315 313 307 305 309 313 310 306 308 306 306 309 308 309 307 304 304 305 304 303 304 307 306 304 305 310 313 304 297 297 296 294 294 293 292 292 291 291 292 291 291 291 291
308 309 308 309 308 308 309 311 311 309 310 309 307 309 307 308 310 307 314 326 315 304 306 306 306 306 305 305 302 303 310 309 304 302 302 302 303 308 310 307 307 309 309 310 309 309 309 307 307 308 310 311 308 305 304 305 308 308 307 305 303 304 304 304 304 305 308 307 304 303 306 312 309 300 296 297 294 293 293 292 291 291 290 291 291 290 291 290
309 309 308 308 308 308 310 312 311 309 312 309 307 309 306 307 309 306 316 328 315 303 306 308 306 306 306 303 301 306 310 307 304 302 302 302 301 304 309 308 308 308 306 309 312 307 306 311 314 313 312 313 309 305 305 304 305 307 306 303 305 305 303 304 303 305 309 306 303 305 305 307 310 303 296 296 295 293 293 292 291 291 290 290 290 290 290 290
308 308 308 308 308 309 310 311 310 310 311 309 307 307 307 309 307 310 322 319 308 305 306 306 305 304 305 302 304 310 307 305 306 303 301 301 301 304 307 306 306 308 304 307 310 306 305 308 312 313 312 312 308 305 305 304 306 309 307 303 304 304 303 304 306 309 309 303 303 308 304 304 310 304 295 295 295 292 293 292 291 290 290 290 290 290 290 290
308 309 308 308 309 309 309 309 309 310 309 308 307 307 309 308 307 319 329 311 304 308 305 305 306 305 305 307 312 310 305 306 305 303 302 301 300 303 305 303 305 308 304 303 304 302 303 305 306 308 308 308 310 308 306 306 307 307 305 304 304 305 304 303 307 311 309 305 307 309 303 302 306 303 296 295 294 292 293 291 290 290 289 289 290 289 289 289
308 308 308 308 308 309 310 309 308 307 308 307 306 308 308 310 318 330 324 306 303 306 305 305 305 305 307 313 316 309 306 308 304 304 306 302 301 303 301 300 304 311 307 305 305 302 301 302 303 307 307 306 309 309 307 307 307 306 306 306 305 305 305 305 306 307 305 305 308 308 304 301 302 301 294 294 294 293 293 291 290 290 289 289 289 289 289 289
309 308 308 309 308 308 309 309 307 306 307 306 306 308 308 314 327 329 311 303 303 305 307 308 306 307 307 307 307 307 309 310 306 307 308 303 302 304 303 302 305 312 311 308 309 306 304 305 306 307 306 304 306 307 306 306 305 305 306 306 303 303 306 310 312 308 302 302 304 306 304 301 302 301 294 293 293 293 293 291 290 289 289 289 289 289 289 288
309 308 308 308 308 309 309 309 308 305 306 306 306 313 318 318 318 313 307 306 303 304 304 305 307 309 306 303 303 303 306 308 306 305 305 305 305 302 302 303 302 305 308 306 307 308 309 307 302 302 303 302 303 305 305 308 306 304 306 306 305 308 307 305 307 307 304 302 301 303 302 301 301 297 294 294 292 291 291 291 291 289 288 288 288 289 289 289
308 308 308 308 308 309 309 309 308 306 306 306 308 320 328 322 310 304 308 309 302 302 302 304 308 306 303 306 305 302 303 304 303 303 302 304 308 304 302 303 301 301 303 304 304 307 311 311 304 303 303 301 303 304 303 305 304 303 305 305 306 309 305 301 301 303 304 302 300 299 300 303 301 295 293 293 291 291 291 291 291 290 289 289 289 289 289 289
307 307 307 307 307 309 308 309 309 307 306 307 316 326 321 312 305 301 306 309 304 303 304 304 306 304 302 305 303 302 305 305 301 302 306 308 310 309 306 304 303 303 304 303 301 302 305 307 306 303 301 302 304 305 303 303 303 304 305 305 306 306 304 303 304 304 302 302 301 299 301 305 303 296 293 292 290 290 290 290 290 289 289 289 289 289 289 289
307 306 306 305 306 307 307 307 309 308 304 305 316 322 313 305 303 303 306 306 304 306 305 301 302 307 309 307 303 301 302 306 304 303 308 308 307 307 305 304 303 303 305 304 301 301 302 304 305 302 300 302 305 305 303 303 303 303 304 306 306 306 305 305 306 303 301 302 303 303 302 301 296 293 291 292 291 290 290 290 289 289 289 289 289 289 289 289
306 305 305 304 304 306 306 306 307 306 304 307 313 313 308 303 302 304 305 303 303 303 305 305 304 310 314 311 312 307 300 304 306 303 305 305 303 304 304 303 302 301 303 303 302 302 302 305 305 303 304 304 303 304 303 302 302 303 303 303 302 302 303 305 306 304 302 303 304 305 302 297 294 292 290 290 291 290 290 290 289 289 289 289 289 289 289 289
307 306 304 303 304 305 305 305 305 304 304 308 313 309 304 302 300 302 304 303 301 299 305 310 304 304 309 310 314 311 303 304 304 301 304 303 302 304 304 302 300 301 302 301 303 302 300 304 305 302 305 305 300 302 303 301 302 304 303 301 301 301 303 304 304 304 304 303 302 303 301 298 299 297 291 290 291 291 290 290 289 289 289 289 289 289 289 289
308 307 306 303 303 303 304 305 304 304 304 309 314 309 303 302 300 300 302 301 300 301 307 308 301 300 305 307 309 309 305 306 305 303 304 303 301 302 305 303 299 302 302 299 301 301 299 305 306 300 301 303 300 301 303 301 300 302 303 302 300 301 304 303 301 301 302 301 300 301 299 300 303 300 292 291 291 291 290 290 289 289 289 288 288 288 288 288
309 312 309 304 304 303 303 304 302 304 307 311 315 310 304 305 304 302 302 300 300 305 309 305 300 302 304 304 306 309 306 306 306 304 302 301 302 301 302 302 300 303 302 299 301 302 300 303 305 300 299 301 301 301 301 300 299 300 301 300 299 299 300 301 300 300 300 300 300 300 299 299 300 295 291 291 291 291 290 290 290 289 289 288 287 287 287 287
307 313 309 302 304 304 303 303 304 306 310 309 309 307 304 306 306 303 299 299 302 304 304 305 303 303 306 304 303 305 306 307 306 305 302 301 302 302 301 301 303 302 301 300 300 301 301 302 302 302 300 300 300 300 299 298 298 300 301 299 297 298 298 298 299 299 299 299 299 299 299 300 296 291 290 291 291 291 290 289 289 289 288 287 286 287 287 287
309 318 310 302 304 305 305 307 306 308 312 308 305 306 305 304 305 304 299 298 302 302 302 306 305 303 305 304 303 303 306 308 307 306 305 303 301 301 300 300 304 303 302 304 303 301 302 302 302 302 300 299 300 299 297 297 297 298 300 298 296 297 298 298 298 299 298 298 299 299 298 298 295 291 290 291 291 291 290 289 289 288 286 286 286 286 286 286
316 320 308 302 304 303 306 310 306 307 313 308 304 305 306 305 303 303 302 299 302 303 303 304 305 305 305 304 304 305 305 309 309 305 303 302 301 299 297 297 301 302 301 304 302 299 301 302 302 303 300 299 301 300 297 296 294 294 295 295 295 296 297 297 298 297 296 296 297 297 295 295 295 293 291 291 291 291 290 289 288 286 285 285 286 286 286 286
315 311 303 302 304 303 307 311 308 307 308 303 300 301 303 304 304 304 303 302 303 304 305 304 303 303 304 303 305 306 304 305 306 303 303 305 303 298 295 294 298 300 301 303 301 298 300 302 302 302 300 298 299 299 297 296 297 296 293 291 292 293 294 296 297 296 294 294 294 293 292 293 294 293 291 290 290 290 290 288 286 285 285 285 285 285 286 286
310 304 303 304 302 304 312 314 311 309 306 303 304 304 302 301 305 305 304 304 305 305 306 305 302 301 302 302 304 305 303 301 302 301 301 304 302 296 293 294 297 300 300 300 300 298 300 304 303 302 300 297 297 297 296 297 299 297 292 290 290 290 291 293 294 293 293 293 291 290 290 292 292 292 290 289 289 290 288 286 285 285 285 285 285 285 285 285
312 308 308 306 300 304 311 310 310 313 312 309 308 306 303 302 302 304 304 304 303 303 305 303 301 302 302 301 303 305 303 300 300 302 301 304 304 299 295 294 296 299 298 294 295 298 300 302 302 302 301 297 297 297 297 298 298 295 292 290 289 290 290 291 291 291 292 291 289 289 290 290 290 289 289 288 289 288 286 285 285 285 285 285 285 285 285 286
317 314 315 313 303 302 303 302 309 315 314 315 312 304 304 305 302 301 303 303 302 302 304 303 301 302 303 304 309 312 308 302 300 303 305 307 307 302 296 294 295 296 296 294 294 298 302 302 301 303 302 299 299 299 298 298 298 297 295 291 289 290 289 290 290 290 290 290 289 290 289 289 289 288 288 288 288 287 285 285 285 285 285 286 285 285 286 286
318 312 310 313 309 310 309 304 308 312 308 312 312 302 305 310 304 301 301 301 302 302 303 303 301 302 303 305 308 310 308 302 299 300 303 304 306 302 296 296 298 296 296 296 295 298 303 303 301 303 302 300 300 298 297 298 297 296 294 290 289 289 289 289 289 289 289 289 289 289 288 289 289 288 288 288 287 285 284 284 285 285 285 285 285 286 286 286
314 309 303 305 307 311 311 306 307 309 308 311 308 301 307 312 308 306 304 301 302 302 301 302 301 301 302 302 303 305 306 304 301 302 302 301 303 302 299 299 299 296 297 299 297 298 302 302 300 300 300 299 298 298 297 297 296 293 290 289 289 289 288 289 288 288 289 289 289 288 288 288 288 287 288 287 285 284 284 285 285 285 285 285 285 285 285 286
307 308 302 302 306 307 305 303 305 309 309 312 310 304 308 311 306 303 302 303 306 302 299 301 301 301 301 300 302 303 303 301 301 302 302 300 299 301 303 303 299 295 296 300 299 296 298 304 303 299 297 297 297 297 297 297 296 291 288 288 288 288 288 288 288 288 288 288 288 288 288 287 287 287 287 286 285 284 284 285 285 285 285 285 285 285 285 286
309 311 305 305 308 305 303 305 310 314 312 311 312 305 305 310 306 302 300 302 304 302 300 302 303 301 301 301 303 304 301 299 298 299 299 299 299 301 303 302 299 297 298 300 300 296 296 300 301 297 296 297 296 297 296 296 295 292 289 288 288 288 288 288 288 288 287 288 288 287 286 286 286 287 286 285 285 284 285 285 285 285 285 285 285 285 286 286
303 303 302 311 310 303 305 306 307 317 317 311 311 306 304 307 305 303 304 300 300 303 302 302 303 303 302 302 304 306 302 298 298 298 297 298 299 300 300 297 296 298 301 299 297 296 297 298 298 296 296 296 295 296 295 294 293 292 290 289 288 288 288 288 288 288 287 287 287 285 285 285 286 286 284 284 285 284 285 285 285 285 285 285 285 285 286 286
302 298 299 312 311 302 305 307 307 315 311 304 306 306 304 306 303 302 303 302 303 305 301 300 302 303 305 305 302 300 299 297 297 297 296 296 296 296 297 295 294 296 299 297 294 292 293 296 298 296 296 297 295 295 294 293 293 293 291 289 288 288 288 288 288 287 287 287 286 285 285 285 285 285 284 284 284 284 284 285 285 285 285 285 285 286 286 285
Wind_Speed
2 2 3 3 4 5 5 6 7 7 8 9 10 10 10 11 11 11 11 11 10 11 13 14 12 11 9 6 4 4 4 8 16 21 16 10 14 16 14 12 11 13 13 13 14 11 9 12 12 13 7 3 4 2 2 3 2 3 4 1 3 3 3 5 6 6 3 5 7 5 1 3 9 5 3 2 1 4 6 7 6 5 10 13 16 13 5 2
2 3 3 4 4 5 6 6 7 8 9 9 9 9 9 10 10 11 11 11 9 10 12 13 13 13 11 8 5 4 3 6 14 17 14 14 17 17 13 10 10 11 13 12 12 10 7 6 8 9 6 2 3 2 2 2 3 3 4 1 4 5 5 5 6 5 3 6 8 8 3 4 7 4 2 4 7 5 7 10 4 6 13 14 19 19 12 8
3 3 4 4 5 6 5 6 7 8 8 8 9 9 9 9 9 11 12 9 8 9 11 12 13 13 12 9 6 5 2 5 10 10 13 17 17 16 13 9 9 11 12 10 9 7 5 2 3 5 4 2 2 3 3 3 2 2 3 1 5 5 5 5 6 6 6 6 8 10 3 3 6 3 1 3 8 9 8 10 5 7 12 11 12 12 11 11
4 4 4 5 5 5 4 6 7 7 8 8 8 8 8 9 10 12 10 7 7 8 10 12 12 11 11 9 9 6 2 6 5 8 13 16 16 16 13 9 8 11 10 9 7 5 4 3 4 5 4 2 4 3 3 2 1 1 3 4 6 3 3 7 7 7 7 4 6 8 4 6 6 2 2 1 5 11 9 8 8 10 12 11 11 7 6 10
4 4 4 4 4 4 5 6 7 7 8 8 8 8 9 10 12 12 8 5 5 8 10 12 11 10 9 7 10 8 2 5 4 9 13 15 15 15 12 10 9 8 8 8 5 4 3 4 6 6 4 2 4 4 1 2 2 1 3 5 5 4 3 8 6 6 6 3 5 7 6 7 3 1 4 4 4 8 9 7 6 10 10 9 9 8 5 6
5 4 4 4 3 4 6 7 7 8 8 8 8 8 10 11 12 12 6 4 6 8 10 11 11 12 9 6 9 9 6 3 6 9 12 13 13 12 12 13 11 7 5 5 4 4 3 5 6 4 3 3 2 2 1 3 2 1 4 2 4 5 5 6 3 4 3 3 7 6 5 4 4 6 3 6 10 12 12 12 8 9 10 10 9 8 7 8
4 4 3 3 4 5 6 7 7 8 8 8 8 9 11 11 12 9 4 4 6 8 9 10 12 14 9 3 8 11 8 1 7 10 11 12 12 11 12 13 12 7 2 4 5 4 4 6 5 4 3 3 1 1 2 3 2 2 4 5 4 5 6 5 4 5 4 7 10 3 4 5 5 7 3 4 14 14 15 14 11 11 11 10 9 9 11 10
4 3 2 3 4 5 6 7 8 8 8 8 9 10 11 10 9 6 6 5 6 7 9 10 12 13 8 3 4 6 5 3 9 11 12 12 11 11 10 12 13 7 4 7 5 3 4 5 2 4 3 1 4 2 1 2 3 4 5 5 3 3 6 6 6 7 7 7 7 2 4 9 8 3 3 11 16 13 11 10 10 9 10 9 8 10 10 10
3 2 2 3 4 6 7 8 8 8 8 9 10 11 9 8 7 7 7 5 6 8 9 10 12 12 7 2 5 5 3 6 10 12 13 14 13 12 10 11 13 8 6 8 5 4 3 1 3 4 3 2 4 2 1 1 2 5 5 4 4 6 7 6 6 6 7 5 2 1 6 9 6 1 4 13 15 11 8 7 9 8 10 11 9 10 8 10
2 1 2 3 5 6 7 8 8 8 9 10 10 9 7 7 7 6 6 5 6 7 9 9 9 12 9 4 6 6 5 7 10 11 13 16 15 10 8 10 11 8 7 6 5 5 2 4 4 3 5 3 3 2 2 2 1 4 3 5 6 8 7 4 4 6 7 5 1 3 8 8 3 1 4 9 7 6 10 11 10 8 10 11 10 10 7 9
1 1 2 4 6 7 8 8 8 8 9 9 9 7 6 6 6 5 4 5 5 6 8 7 5 8 11 8 8 5 5 8 10 11 13 17 16 8 6 8 7 6 6 5 5 3 1 5 5 4 1 1 2 1 1 3 0 1 2 6 7 7 4 3 4 5 6 3 2 5 8 6 3 1 6 9 6 7 10 13 12 9 9 10 10 10 7 7
1 1 4 5 6 7 8 8 8 8 9 8 8 7 5 3 4 3 4 4 5 5 6 7 5 4 5 8 6 3 7 10 11 13 15 18 16 7 3 6 4 3 2 2 2 2 2 4 6 6 1 0 1 1 1 1 3 2 4 4 8 9 3 3 7 5 5 4 6 7 6 6 1 5 9 9 9 11 12 12 12 11 9 10 9 9 7 7
1 3 4 5 6 7 7 7 7 8 9 8 6 7 7 4 2 1 2 3 4 5 6 6 6 4 3 4 2 5 10 12 13 16 18 18 14 3 1 5 2 2 1 1 1 2 4 2 6 6 2 3 1 1 2 4 4 1 4 3 5 10 4 3 6 6 5 4 8 7 4 7 5 8 7 5 11 15 16 15 14 12 10 10 9 9 9 9
2 3 4 5 7 6 7 7 6 7 8 7 6 6 6 4 2 1 2 3 4 6 5 6 6 3 4 2 1 9 12 12 17 21 20 18 10 2 3 5 1 2 1 2 3 6 6 4 8 6 3 4 2 2 4 6 5 2 4 3 4 6 5 6 6 6 5 3 8 8 1 7 10 13 7 6 10 12 13 14 14 13 13 13 13 13 14 12
2 3 4 6 6 6 7 7 7 7 6 7 8 8 6 4 3 2 1 3 5 7 4 4 6 3 3 2 2 9 12 12 20 25 22 18 9 3 7 5 3 2 2 3 7 10 9 7 9 5 2 3 3 5 5 4 5 4 4 4 4 3 6 11 6 5 5 4 7 7 2 6 10 13 9 7 9 9 9 11 13 15 16 16 16 16 17 17
2 3 4 5 6 6 7 7 7 7 8 9 10 11 8 3 2 2 2 2 4 8 7 4 7 4 5 2 5 9 10 11 21 28 24 17 10 9 11 5 4 5 6 7 7 8 11 9 6 3 3 5 6 5 4 4 5 4 4 3 5 3 5 10 4 4 4 4 6 6 1 6 8 10 13 12 11 11 12 13 14 15 15 16 15 16 17 18
2 3 4 5 6 7 6 6 6 5 6 7 8 11 13 8 2 1 2 3 2 6 8 6 7 3 4 4 6 7 9 11 20 30 29 17 9 12 13 6 5 7 7 7 6 5 9 7 2 2 5 5 4 4 5 5 6 4 4 2 4 3 4 7 5 4 7 4 5 3 2 8 9 10 13 13 14 15 15 15 16 14 15 16 15 16 17 18
2 3 5 6 6 6 6 6 4 2 3 5 6 10 15 18 15 11 7 1 3 5 6 8 8 3 2 8 5 8 15 14 16 28 32 19 8 11 14 7 4 6 4 5 8 7 6 4 3 3 5 6 5 6 6 1 4 4 4 3 4 4 3 5 6 5 8 7 6 4 3 9 11 10 10 14 16 16 15 14 14 15 16 16 16 16 16 17
2 4 5 6 6 6 6 6 5 4 3 4 6 7 7 11 15 20 20 12 4 3 2 5 6 4 2 7 7 14 18 10 9 24 31 23 8 5 10 9 5 5 5 4 6 7 4 4 6 5 5 7 4 3 3 5 5 5 5 3 5 5 5 8 8 4 5 7 8 3 3 9 12 11 11 14 15 16 17 16 15 16 16 16 16 15 16 17
3 5 6 6 5 6 8 9 9 7 5 5 5 2 1 3 6 9 13 12 6 4 3 2 2 2 3 5 9 19 15 3 5 20 32 25 9 3 8 9 7 8 6 1 4 4 3 6 5 3 5 6 6 4 5 4 4 4 3 3 6 5 7 9 7 5 4 4 6 1 3 9 10 10 11 11 15 19 19 18 17 16 15 15 17 17 18 16
4 6 6 6 6 9 12 13 13 11 8 6 5 4 1 2 5 2 2 5 2 1 3 1 1 1 5 5 10 16 7 1 4 17 33 26 7 4 7 7 8 7 4 2 3 4 5 7 4 5 7 7 5 3 3 3 2 2 2 3 6 4 7 11 6 4 4 5 5 3 7 11 7 9 10 12 17 18 17 17 17 17 16 15 16 19 18 14
5 6 7 6 7 10 13 13 14 14 14 15 13 8 4 4 5 3 2 4 2 2 2 2 2 4 6 3 10 13 2 5 9 17 33 27 10 6 5 6 8 3 5 3 2 5 6 3 6 7 4 3 1 2 1 2 2 2 1 1 4 4 6 10 3 2 3 3 5 6 7 10 5 9 9 13 13 11 12 14 14 16 17 16 17 17 17 17
6 7 7 6 8 10 11 13 13 15 19 18 13 8 4 3 3 2 3 5 1 3 3 4 4 6 7 4 13 14 6 7 7 13 28 21 7 5 4 6 6 3 6 7 5 4 3 3 5 2 2 2 2 4 5 3 0 1 1 1 5 4 3 5 2 3 7 3 4 5 4 5 3 6 8 10 8 8 11 12 13 14 14 14 14 14 16 19
8 8 7 7 8 7 7 9 11 14 18 15 12 8 5 3 2 2 3 3 1 2 1 1 2 4 5 4 15 12 4 4 1 9 22 14 4 3 4 4 4 5 5 2 6 5 1 5 2 3 5 6 4 5 6 5 5 3 4 3 4 6 3 6 5 8 8 1 2 5 4 2 2 4 6 5 6 10 12 14 16 15 13 12 13 14 15 16
8 8 8 7 7 5 3 5 8 11 10 9 9 7 5 5 2 2 3 4 4 4 2 2 2 6 5 7 16 7 3 4 2 6 16 10 4 3 3 1 4 5 5 1 4 3 2 4 0 3 5 6 5 4 4 3 6 6 4 5 4 8 8 8 8 8 6 3 2 4 5 4 0 5 6 5 9 13 13 16 18 15 15 14 14 15 14 13
8 8 7 6 6 5 3 2 5 7 5 4 5 3 2 5 3 2 3 5 4 4 6 6 4 10 10 10 14 4 3 5 2 5 14 11 4 2 3 3 3 4 4 1 2 1 2 3 3 3 3 5 6 4 1 2 5 6 4 4 4 7 9 9 6 4 3 4 4 2 2 5 3 4 5 5 10 14 14 17 18 15 15 15 14 14 14 14
8 7 7 3 5 7 5 2 4 4 2 2 4 4 1 2 3 2 3 6 4 3 5 6 4 9 10 9 12 4 4 8 5 6 13 13 7 1 5 5 2 3 1 2 4 1 2 6 6 5 4 5 6 5 2 3 3 5 4 1 8 10 8 6 2 1 3 4 4 2 3 3 4 1 3 3 7 14 15 16 16 15 16 15 14 14 14 14
7 6 6 2 5 9 6 2 2 1 1 2 4 3 1 0 0 2 5 5 3 2 1 4 5 7 8 9 11 7 2 6 4 6 13 14 9 3 5 4 1 3 2 5 4 4 1 3 4 4 5 5 4 4 3 4 0 7 5 4 9 8 4 2 3 2 2 3 5 5 1 1 6 2 4 4 7 14 15 13 14 14 15 15 14 15 16 15
8 6 4 1 5 8 7 4 3 1 1 3 3 2 1 1 1 3 6 4 2 2 1 2 6 7 9 9 8 5 3 4 3 6 13 13 11 7 4 1 3 2 4 3 1 4 2 2 2 2 2 3 5 6 3 5 3 8 6 7 6 1 2 2 3 2 2 2 4 6 1 1 7 3 6 6 8 11 11 9 11 11 13 14 13 14 15 14
9 7 4 2 3 6 6 4 4 3 2 3 2 2 1 2 4 6 5 1 1 3 1 3 4 5 8 9 7 6 5 3 2 6 7 5 10 9 3 1 4 4 6 4 1 3 3 1 2 2 1 2 4 7 3 6 5 7 6 7 6 3 3 3 2 3 3 3 6 7 2 2 5 3 4 5 4 4 6 7 10 11 13 15 13 12 13 13
10 8 5 4 4 6 5 3 4 3 3 3 3 2 2 4 5 7 3 1 1 4 4 5 4 4 8 6 4 6 5 5 5 6 6 3 8 9 5 4 4 4 7 7 5 7 6 2 0 2 1 1 2 5 3 2 2 5 5 5 7 6 3 4 4 4 4 6 7 4 2 3 4 2 3 3 2 3 5 6 9 12 13 13 12 11 10 11
10 8 6 7 6 6 5 4 4 4 4 3 1 2 4 5 5 3 1 4 3 3 2 3 4 5 6 3 3 6 4 5 5 5 4 3 5 6 5 4 3 4 6 4 5 8 5 2 3 3 1 1 2 5 5 4 5 6 5 6 6 5 5 6 5 3 1 7 8 3 1 1 3 2 1 3 2 4 5 6 7 10 13 13 13 11 9 9
10 7 6 9 9 8 7 5 5 2 3 3 1 5 7 6 3 1 3 3 2 2 1 1 4 5 5 4 5 6 3 3 5 4 1 1 4 4 4 4 3 4 3 2 3 6 5 6 5 5 2 1 3 5 7 6 6 6 4 3 4 3 5 7 6 4 5 9 8 2 1 3 2 0 3 3 2 3 4 6 6 8 11 13 12 10 9 9
12 11 10 13 12 11 10 7 4 3 1 3 4 7 9 6 0 1 3 3 1 4 2 1 6 6 4 3 4 5 3 3 5 5 3 4 5 4 4 6 6 4 1 2 2 2 5 6 4 3 2 3 3 2 2 4 5 4 2 2 2 2 2 5 5 4 8 11 10 5 1 4 3 1 5 4 2 2 4 4 6 7 9 10 10 11 11 11
11 14 17 19 17 14 13 7 3 5 3 6 8 7 8 3 3 1 2 4 2 4 4 2 4 5 4 4 3 3 2 3 5 6 4 4 3 2 3 4 5 4 3 3 1 1 3 5 7 3 1 1 3 2 1 2 5 2 2 2 3 0 3 3 5 6 6 8 7 5 3 2 1 2 3 2 2 2 4 5 7 9 10 10 10 11 11 11
10 15 21 24 21 15 12 8 1 3 4 7 10 6 3 2 2 2 2 2 1 3 5 5 5 5 5 5 4 5 3 2 4 5 3 2 1 1 2 1 2 4 4 1 1 1 2 6 9 6 4 1 1 3 2 2 3 2 2 3 4 3 5 2 6 4 3 6 5 3 4 1 1 3 4 3 5 5 6 9 10 12 13 13 11 10 10 10
7 10 16 26 25 15 10 6 3 4 6 8 9 4 1 2 2 2 1 2 0 0 3 4 3 3 3 4 5 7 6 3 4 5 3 2 1 1 1 0 1 3 2 1 2 1 0 6 8 4 4 4 2 2 3 0 0 2 4 6 4 1 3 2 3 3 4 7 5 4 9 8 4 3 2 4 9 11 13 15 16 16 16 15 14 13 12 12
3 2 9 24 25 14 9 6 7 8 8 9 8 3 1 0 1 2 1 1 1 1 5 3 1 2 0 1 4 6 6 4 5 5 3 3 2 2 3 1 0 2 2 0 0 1 1 4 7 1 3 8 2 3 5 3 1 1 2 4 3 2 3 2 2 5 6 8 6 6 11 9 4 2 3 7 12 14 15 16 17 17 17 16 16 17 17 15
3 1 5 19 21 13 10 9 10 10 9 7 5 2 1 1 1 1 0 1 0 2 5 1 0 2 0 1 2 5 4 2 3 4 2 2 3 2 4 1 1 2 3 1 2 1 1 1 6 3 1 7 5 4 6 6 4 3 3 4 3 1 3 3 2 3 5 8 8 8 10 7 2 2 3 7 9 10 12 13 13 14 16 16 17 18 18 18
3 3 3 17 17 9 19 23 15 10 8 5 2 2 1 1 2 0 1 1 0 1 2 1 1 2 2 1 1 2 2 1 2 2 1 1 3 3 4 1 2 4 3 3 3 1 2 1 4 6 3 4 4 3 4 5 4 4 4 4 5 2 1 3 2 1 2 6 7 7 9 6 1 3 3 6 7 7 9 11 11 11 14 16 17 16 17 18
4 4 4 19 14 1 13 23 13 5 5 4 1 2 2 0 1 2 1 2 1 0 1 3 3 1 1 2 2 1 2 2 1 1 1 2 2 3 4 1 1 3 3 5 4 2 1 0 3 7 6 5 6 5 2 5 5 4 3 2 3 2 2 4 4 1 1 3 6 6 8 7 1 3 4 5 7 8 9 11 12 12 15 16 15 15 16 16
6 4 6 17 11 9 12 11 4 3 5 3 2 2 1 1 1 2 1 1 1 1 2 3 2 1 1 1 2 1 2 3 1 1 1 1 1 2 4 3 1 2 1 2 2 1 1 2 1 7 6 5 9 4 8 12 13 10 5 2 1 1 4 1 5 4 3 5 7 5 7 8 1 4 4 7 10 9 8 11 12 13 15 15 15 16 17 16
4 3 7 14 6 8 15 7 3 6 4 0 1 1 1 2 1 2 2 2 1 1 2 2 1 1 1 1 1 1 2 2 2 2 2 2 2 2 3 4 3 2 2 2 2 2 1 2 2 7 6 5 7 0 8 9 10 9 5 3 2 1 1 3 3 3 3 5 4 3 8 8 1 1 5 12 14 10 7 11 14 15 15 15 16 17 17 17
3 2 7 17 9 4 8 5 2 4 2 0 3 3 3 1 1 3 2 2 2 1 2 2 1 1 1 1 1 1 3 2 1 2 2 1 2 1 2 4 4 3 3 0 1 2 1 1 2 4 8 9 9 6 3 2 3 4 2 3 4 4 4 2 1 2 2 4 6 6 9 8 5 8 14 19 18 11 9 13 16 16 15 15 16 16 16 17
4 2 4 17 22 14 6 3 6 5 2 3 4 4 4 2 1 1 0 1 1 1 1 2 1 0 1 1 1 1 2 2 2 2 2 2 3 1 3 4 3 3 1 2 2 1 1 1 2 2 4 8 9 8 9 8 5 1 2 4 5 7 8 4 1 2 3 7 10 7 8 11 14 16 19 20 16 12 14 18 17 16 15 15 15 15 16 17
4 4 3 9 15 12 4 1 5 5 4 4 4 3 3 2 1 1 2 1 1 1 1 2 1 1 2 4 4 3 2 1 1 2 3 4 4 1 2 2 2 2 1 2 1 2 2 0 2 4 3 6 7 10 11 8 6 4 2 4 3 4 5 4 2 3 6 10 10 8 11 19 21 20 21 17 13 14 18 19 18 16 16 15 15 17 18 18
3 3 1 2 4 5 5 4 5 4 3 4 3 1 2 3 3 1 1 0 0 1 1 1 2 3 2 5 5 3 5 4 2 1 3 4 4 3 1 3 2 4 4 2 0 3 3 3 2 5 6 8 9 13 12 7 4 3 2 3 2 2 4 5 3 6 10 9 8 11 18 22 22 22 20 15 13 17 20 19 18 16 15 15 16 18 21 20
3 3 1 0 2 2 3 3 3 5 4 4 3 1 3 4 3 2 2 2 2 1 1 2 4 4 1 1 3 1 6 7 5 3 2 3 4 5 5 1 0 4 4 2 2 3 4 2 3 3 6 9 10 12 10 5 2 2 4 3 3 4 5 5 5 9 10 8 11 18 23 22 22 21 17 14 16 19 20 19 18 17 17 17 18 20 22 21
4 4 1 3 4 3 1 1 3 5 6 5 3 2 2 3 3 1 2 2 4 3 3 2 6 6 1 2 2 1 3 3 5 5 2 2 4 3 4 3 2 2 5 5 3 2 3 3 4 2 5 8 9 8 6 5 3 4 3 2 4 5 5 6 8 11 12 13 16 21 23 22 18 14 14 17 19 19 18 17 18 20 20 19 20 22 22 19
3 4 1 4 5 2 1 2 3 4 4 4 3 2 1 2 0 2 1 1 2 4 4 3 6 6 1 3 3 2 3 3 6 7 3 2 4 1 2 3 2 4 7 5 3 3 4 5 5 3 5 6 5 3 6 5 3 4 1 3 7 10 9 7 9 10 11 15 17 19 21 18 11 9 16 20 20 19 19 19 20 21 21 20 21 22 20 16
6 6 7 7 4 3 3 3 3 4 3 3 2 1 1 2 2 1 2 2 1 1 1 1 5 5 2 3 3 6 7 7 8 10 7 5 5 3 2 1 1 4 7 4 2 5 5 5 5 5 6 7 7 10 13 8 2 5 1 4 8 12 11 9 8 9 13 18 20 19 17 12 9 11 17 20 21 22 22 20 20 20 22 24 22 20 18 17
8 6 6 7 4 3 3 3 3 4 2 2 1 2 1 1 1 0 0 1 1 1 2 2 2 1 3 3 5 6 7 7 8 8 6 4 4 2 2 1 3 1 1 1 1 2 3 3 5 4 4 9 12 14 15 9 4 2 1 0 7 14 15 13 10 11 15 16 16 16 13 10 13 16 18 21 23 24 22 20 19 19 22 24 20 16 17 20
Wind_Direction
52 49 52 65 65 63 51 38 34 24 17 9 6 5 7 13 15 10 358 360 15 23 17 7 11 31 50 65 63 58 49 45 42 44 47 19 360 359 353 353 360 360 1 4 8 12 9 11 6 4 21 56 18 350 14 22 48 51 86 130 249 209 209 196 196 206 207 280 285 299 258 221 291 304 287 312 234 269 287 268 242 252 257 247 255 263 273 256
76 74 79 81 72 62 50 38 27 15 8 2 4 6 11 20 17 12 5 15 36 30 20 19 31 50 56 58 55 38 32 43 43 41 29 7 2 359 351 354 2 360 3 8 16 29 31 353 337 5 34 49 356 358 22 10 42 83 119 168 236 205 219 201 202 218 219 275 286 287 259 211 263 286 336 300 286 304 303 280 240 246 263 259 261 259 251 235
98 103 101 87 71 60 47 29 14 5 2 1 6 9 15 19 13 11 13 31 47 31 25 25 35 48 48 44 30 13 356 44 42 19 6 6 2 359 354 352 1 3 4 10 16 27 41 351 343 31 40 54 359 356 35 15 6 131 129 249 243 218 246 237 221 232 235 259 287 285 270 219 249 242 294 276 291 299 275 270 259 258 272 270 269 263 244 228
115 115 99 81 69 56 33 10 3 0 2 7 9 12 16 14 10 7 16 43 48 30 25 23 26 28 27 27 16 357 3 55 29 334 357 6 2 2 360 354 1 3 2 6 11 13 33 49 55 56 51 40 341 3 52 343 342 129 146 203 228 197 276 258 220 238 248 226 254 277 327 294 263 181 239 247 310 300 272 254 235 250 273 278 286 293 241 216
122 106 87 76 63 34 11 0 1 4 7 11 10 10 9 6 3 359 11 47 44 30 24 21 17 8 0 359 0 347 35 61 329 328 359 3 2 7 9 9 0 353 1 5 6 17 29 50 59 51 46 41 347 19 51 287 79 133 220 202 207 162 259 266 225 240 247 211 255 277 301 286 287 151 222 194 237 267 272 270 230 238 264 275 286 295 265 220
110 93 84 71 39 12 3 1 4 9 9 8 4 1 358 357 354 351 11 60 45 32 23 18 8 0 353 358 18 22 77 102 305 336 357 359 2 4 12 12 1 350 355 5 18 45 38 37 54 60 44 55 10 40 227 292 55 247 274 263 233 191 225 267 262 257 238 259 268 264 279 298 344 307 228 186 228 244 265 281 279 269 271 273 279 282 269 244
99 89 82 48 19 8 4 6 7 7 4 360 356 351 349 350 351 355 47 74 44 28 19 14 5 2 3 49 56 45 76 146 312 345 348 354 358 352 2 6 6 1 354 24 26 70 76 42 61 127 78 52 183 189 216 301 25 163 252 285 253 201 219 262 296 290 284 264 259 273 327 304 291 295 336 253 251 254 266 280 288 287 287 281 274 268 264 257
101 91 65 28 14 6 4 7 5 3 360 356 351 347 347 352 2 30 84 79 40 26 17 14 7 5 15 93 95 46 51 311 329 349 344 346 351 349 349 358 10 17 58 43 28 129 108 57 107 151 76 53 179 178 206 316 8 158 214 268 259 213 245 285 305 293 290 264 261 304 286 267 250 257 327 276 269 272 275 290 296 296 303 295 281 272 268 264
114 90 42 21 9 4 6 6 4 4 360 357 354 352 1 18 44 74 87 73 40 31 24 24 19 14 18 88 98 62 340 320 341 349 349 347 345 347 342 357 15 27 65 47 41 116 116 149 198 179 162 181 172 190 198 332 305 197 207 267 277 285 293 312 305 292 297 272 275 300 264 270 255 210 283 264 267 288 309 312 302 308 308 299 291 281 271 266
128 81 36 11 5 6 7 7 6 6 3 4 5 13 39 60 79 89 81 64 44 35 28 32 30 29 34 50 79 60 324 334 352 347 353 351 345 341 340 4 20 38 66 49 45 76 102 187 189 152 144 135 157 198 165 152 239 191 231 274 273 296 299 307 284 290 308 272 236 316 286 289 277 133 279 268 271 324 334 318 309 317 305 301 300 292 282 270
137 71 25 7 10 9 9 12 10 9 9 12 20 33 62 86 90 84 77 59 38 36 31 30 29 30 42 57 76 62 334 345 351 345 346 346 348 341 343 6 25 53 65 53 49 48 29 190 158 108 97 105 157 229 213 200 130 119 323 296 296 318 286 292 317 314 335 320 357 318 290 312 16 134 245 276 323 0 335 316 321 332 315 313 312 309 308 285
145 50 16 12 13 11 15 17 13 16 17 20 33 40 53 89 93 76 78 48 23 26 16 17 13 348 24 52 69 48 344 348 347 347 341 340 346 336 338 1 20 79 83 68 70 40 23 194 137 88 338 240 137 339 221 264 42 88 36 338 310 351 360 338 353 340 3 359 343 335 315 341 18 221 252 290 338 348 338 329 332 336 328 325 320 320 322 310
116 32 18 17 15 16 20 16 18 24 22 29 47 48 48 54 66 83 62 23 17 16 360 7 8 344 33 53 39 6 356 355 354 352 346 344 347 328 27 360 6 113 124 108 111 65 49 157 120 91 73 73 336 312 81 19 29 234 35 49 328 1 357 345 359 338 11 2 349 11 333 313 282 270 288 339 2 351 342 340 340 340 338 336 336 337 336 334
58 29 20 19 17 20 19 19 25 22 23 37 48 46 46 46 46 69 46 28 18 9 358 13 8 359 56 67 304 4 2 6 6 360 353 351 4 103 21 2 108 110 139 155 75 58 57 87 86 79 77 68 301 335 28 5 16 329 353 42 29 12 295 320 351 350 24 352 5 42 255 287 300 306 329 37 21 3 343 337 341 345 349 352 353 354 352 354
51 31 26 23 20 23 21 24 24 23 42 57 55 47 42 55 43 6 41 38 18 14 11 13 7 17 66 45 336 358 356 8 8 4 359 355 16 36 347 9 121 68 71 116 79 61 53 69 68 53 326 354 26 36 15 348 14 18 7 343 356 17 292 318 343 56 44 310 5 51 245 283 294 300 324 11 18 12 348 344 353 356 360 2 360 1 358 357
67 41 29 25 26 27 25 29 35 55 77 68 56 45 41 67 74 39 43 8 6 17 26 14 354 37 88 355 324 347 352 1 2 5 6 2 12 359 351 45 83 50 83 99 91 60 38 53 70 58 4 10 27 37 33 11 358 8 37 318 301 337 319 320 331 67 40 312 352 41 281 283 286 301 322 345 8 9 3 6 7 5 6 9 7 7 5 0
83 48 33 34 36 36 33 32 47 83 80 53 49 51 54 64 70 358 303 284 315 355 19 15 339 19 85 353 332 340 336 340 354 4 8 7 11 10 16 56 36 32 85 79 63 29 19 39 62 31 40 37 14 25 50 19 332 327 19 342 274 291 304 316 315 342 21 16 333 360 232 259 275 301 320 345 10 13 16 16 12 15 16 16 16 12 11 6
88 50 36 41 47 43 27 17 24 48 28 31 68 83 75 69 67 63 43 303 257 319 358 4 1 63 26 345 338 319 319 322 349 4 7 7 8 17 26 41 18 17 43 38 31 22 10 22 51 41 24 22 16 41 61 316 272 280 309 316 303 297 269 285 284 316 13 4 314 328 293 278 289 306 337 3 16 24 27 23 19 22 21 18 19 15 11 8
76 45 46 57 56 34 11 12 22 38 56 84 111 123 98 68 62 59 51 54 62 22 20 335 10 105 268 316 313 320 321 312 355 5 4 2 351 360 23 32 43 44 40 17 8 15 19 25 38 35 358 349 348 65 142 226 230 242 259 249 275 292 281 271 264 284 6 334 296 318 311 296 307 328 5 15 23 35 29 26 26 21 20 19 17 14 10 10
63 52 70 74 55 32 35 48 55 68 96 133 156 142 88 38 42 41 32 42 72 84 92 280 350 114 288 301 320 338 342 322 23 9 3 358 342 350 17 20 35 49 50 359 328 358 66 55 29 332 296 298 283 230 211 242 232 228 243 240 261 272 281 283 273 271 356 342 275 195 351 296 308 348 18 26 32 36 25 24 25 18 20 16 13 12 9 9
69 76 94 82 57 55 61 63 61 73 90 105 114 80 109 143 75 88 328 32 51 69 85 224 198 53 302 288 327 346 352 282 354 10 6 2 1 19 2 15 40 35 6 263 275 346 59 61 351 278 254 262 275 235 228 265 221 204 215 246 282 269 264 286 284 263 10 20 285 37 12 309 331 31 32 37 41 37 24 24 21 16 18 14 12 10 4 3
88 101 108 83 71 73 72 67 62 72 75 72 80 89 142 161 107 142 162 78 30 347 62 333 40 12 314 304 345 346 9 355 346 359 3 5 24 33 1 35 58 27 335 354 1 0 38 36 293 282 253 231 70 86 41 293 188 179 220 226 306 299 282 292 272 218 2 1 297 12 10 316 8 69 56 47 52 49 33 30 24 17 17 13 9 5 1 3
105 117 115 87 84 89 83 71 59 62 64 64 74 94 124 120 117 135 83 92 52 344 23 16 48 8 348 21 357 355 49 32 350 347 357 4 27 45 59 45 48 27 356 23 58 56 39 309 280 302 16 43 17 15 27 359 292 181 246 283 298 314 341 304 294 343 326 294 272 325 329 305 31 80 64 52 56 58 44 35 33 26 21 12 4 2 4 5
118 128 122 91 85 98 94 64 44 51 58 65 74 84 105 98 141 137 66 86 22 343 44 61 119 27 7 360 352 3 77 40 356 341 355 10 20 30 77 59 53 36 355 32 88 100 209 268 250 62 38 47 11 351 33 18 343 300 228 206 283 313 303 258 286 321 323 323 255 319 332 300 97 68 39 32 32 40 35 27 29 25 19 11 4 6 7 6
126 137 127 87 75 87 83 37 32 45 51 62 67 69 87 67 64 129 84 65 6 328 350 27 50 19 356 337 351 4 137 20 79 347 355 16 9 11 61 48 77 28 319 246 80 78 273 274 292 17 11 44 28 359 44 41 348 324 255 197 261 310 293 274 304 327 344 354 294 11 5 291 175 71 32 10 24 28 24 24 24 15 11 10 6 5 2 2
125 140 133 86 60 42 21 2 10 22 30 47 45 28 59 47 38 110 99 62 21 329 351 2 5 2 352 340 342 358 104 354 318 6 10 15 356 109 72 346 45 21 304 265 54 96 305 332 53 40 3 25 18 4 15 96 17 331 252 198 266 300 295 297 327 351 344 298 281 71 126 261 304 38 21 19 36 27 20 22 18 9 8 7 3 360 356 357
121 137 146 109 35 14 4 339 345 360 28 16 1 353 344 23 44 94 79 44 15 322 349 343 339 359 355 339 338 36 92 320 310 23 16 10 347 97 68 6 11 358 292 82 21 303 298 342 16 30 23 16 7 352 290 149 25 300 221 219 307 303 294 297 338 171 248 285 313 17 150 233 290 318 19 28 47 29 20 18 11 7 4 0 358 356 353 353
112 131 153 141 4 3 4 10 4 43 81 347 339 358 359 128 98 88 81 67 347 323 10 322 329 352 346 344 3 63 114 319 12 360 347 8 10 29 58 34 151 280 291 90 22 303 258 337 348 8 17 4 342 322 261 155 345 272 248 295 296 291 284 230 150 192 270 347 325 310 134 252 271 241 39 31 47 26 14 10 3 2 0 355 354 353 352 352
102 116 139 97 352 4 14 25 24 44 14 339 345 3 14 69 83 61 73 98 317 336 162 326 343 343 344 355 11 39 4 359 62 323 336 13 15 26 69 38 150 227 307 89 117 291 289 222 210 112 58 315 288 287 232 159 249 279 291 300 281 260 81 105 125 148 27 26 276 276 194 226 277 303 16 21 42 15 356 360 357 356 357 353 350 349 351 349
97 99 96 37 2 2 5 17 19 2 329 334 334 308 329 35 63 60 47 77 330 326 296 18 2 339 360 7 351 358 14 359 319 328 349 16 358 15 84 196 95 85 345 5 156 282 315 264 175 130 168 221 288 298 235 176 245 306 346 331 314 5 64 60 71 96 45 322 258 258 209 193 281 321 26 27 35 336 324 349 352 353 355 352 348 344 348 348
92 84 65 33 14 359 354 1 354 327 303 310 304 321 22 28 62 84 67 287 320 336 355 12 347 4 25 28 341 344 4 336 329 6 10 359 359 11 33 15 35 48 6 1 349 335 352 21 249 281 248 124 353 319 296 190 301 350 8 352 338 340 17 19 359 41 31 300 273 264 177 179 260 286 93 89 40 324 327 341 345 352 351 348 345 339 343 346
86 71 48 25 11 356 344 313 301 291 274 274 297 53 69 42 33 83 314 315 334 347 4 327 316 3 8 5 343 332 337 334 351 46 29 16 34 21 29 29 4 11 11 3 343 344 348 299 294 324 356 58 358 327 328 347 13 13 7 16 11 347 353 351 334 356 307 274 280 292 70 209 246 263 153 146 57 2 351 336 331 344 347 344 342 336 337 340
73 53 30 17 8 359 348 309 277 262 254 236 77 54 77 75 40 257 285 325 359 332 339 280 307 336 341 359 358 332 328 336 351 35 66 83 60 21 14 29 33 28 2 340 353 348 331 307 330 7 355 8 41 3 345 333 346 0 8 28 28 18 352 327 311 326 299 283 291 321 125 266 280 156 186 162 71 2 339 335 321 329 340 340 337 333 332 335
66 49 36 25 19 13 2 329 248 189 151 109 80 51 67 80 245 260 300 281 275 331 355 334 317 332 14 32 344 330 356 335 345 16 9 24 42 8 348 359 18 48 82 30 25 1 351 323 327 17 337 337 12 8 319 293 306 325 166 142 55 53 340 297 280 295 303 297 305 332 295 271 305 170 182 170 102 333 314 325 322 327 335 334 334 337 338 339
68 48 37 28 23 19 12 356 224 182 129 77 68 59 75 100 252 217 283 269 293 331 321 334 350 7 7 337 318 352 17 303 339 19 20 31 58 10 355 340 352 33 63 31 337 345 20 286 270 304 341 16 354 305 197 333 316 295 145 86 8 285 186 238 252 252 279 291 296 311 281 228 321 242 213 218 235 271 299 317 334 338 341 340 339 341 339 336
69 45 33 24 18 14 17 23 82 159 131 82 65 57 95 185 225 167 224 290 353 323 326 347 17 29 348 320 329 353 354 273 336 6 1 43 115 294 357 280 314 28 54 61 286 2 30 279 283 327 341 118 133 288 311 11 324 323 35 344 293 200 150 220 284 291 315 290 278 299 292 289 350 271 244 263 276 294 326 341 347 343 345 346 341 340 334 329
61 45 34 21 13 7 15 30 80 102 94 80 74 82 201 209 181 182 241 1 329 238 45 30 15 17 335 315 318 330 342 332 354 4 339 4 63 202 55 245 242 34 41 171 245 282 123 283 295 328 310 282 177 263 307 357 91 9 345 314 295 103 102 134 286 341 342 288 280 325 306 298 310 283 241 295 319 335 344 348 348 344 345 343 339 338 333 329
353 59 40 18 10 9 16 44 88 87 80 69 70 112 184 245 181 202 230 33 275 35 62 76 14 18 278 296 304 312 340 347 354 6 341 343 354 133 91 14 269 46 347 353 229 306 113 295 298 246 260 292 318 47 340 325 69 79 298 320 5 345 325 6 345 324 316 291 289 309 300 290 275 278 326 332 331 337 340 345 346 341 341 338 335 337 333 331
339 90 35 6 8 30 52 78 85 66 69 73 72 131 172 266 227 198 153 35 162 78 58 65 321 17 269 196 283 298 332 336 332 349 14 8 347 68 84 11 339 15 327 81 126 284 53 328 293 286 282 310 341 31 349 330 358 26 18 10 21 232 268 317 326 304 300 297 300 300 295 293 238 192 302 312 312 324 334 341 341 334 335 336 336 338 336 334
11 94 29 353 357 47 68 70 67 45 62 95 150 144 80 267 263 269 166 183 214 95 57 198 156 3 316 298 293 293 319 295 294 322 344 357 330 5 48 37 346 348 346 54 77 323 18 77 275 292 331 2 352 338 333 340 355 11 39 25 342 325 301 296 286 111 308 301 304 295 286 288 226 168 249 282 294 313 328 335 334 328 330 335 336 336 333 328
44 94 341 348 349 159 65 57 52 41 72 79 112 103 49 256 4 354 202 191 233 240 136 152 143 57 317 337 331 286 303 306 284 273 288 330 347 10 18 38 354 333 2 39 31 6 16 118 265 299 332 358 315 296 36 72 77 60 68 66 324 346 35 318 302 346 5 293 286 289 289 290 281 168 223 281 305 312 327 334 331 327 329 334 334 328 323 318
55 88 323 352 29 102 75 52 21 46 83 61 62 105 18 68 59 345 298 171 244 298 75 108 108 86 156 290 305 283 312 301 281 323 292 261 299 339 351 12 16 294 35 43 319 283 101 103 276 290 293 274 272 286 90 101 97 83 73 61 351 57 87 346 300 322 334 294 282 285 291 294 282 178 232 313 318 307 324 329 322 325 331 333 328 323 320 315
70 96 356 355 9 91 73 61 342 29 70 144 56 112 352 61 54 332 356 21 353 6 29 41 35 35 133 275 324 338 322 275 231 334 335 263 283 303 329 342 327 316 53 53 308 319 73 76 345 301 297 276 268 325 105 118 101 81 59 44 52 64 131 209 252 340 323 290 303 300 284 290 310 186 299 325 318 304 319 326 325 330 330 326 323 321 320 317
106 139 18 14 19 109 84 88 115 64 75 79 43 11 340 24 69 9 355 355 3 59 40 13 353 14 17 118 136 261 326 341 290 332 355 284 295 9 26 340 339 16 50 63 302 341 330 16 25 335 331 334 335 359 13 337 42 75 67 42 55 34 6 272 234 3 286 293 337 312 277 290 328 333 325 323 320 322 329 325 328 329 322 320 321 318 317 315
67 86 345 21 44 72 92 143 136 119 124 83 55 12 353 16 77 29 292 16 31 141 73 350 295 18 354 50 37 326 359 16 308 331 5 295 284 5 37 352 354 44 36 281 297 322 275 231 105 67 336 322 324 324 318 325 348 68 90 39 32 31 21 3 319 312 285 310 320 293 273 297 313 320 320 319 325 333 326 324 328 323 316 318 318 316 316 313
66 52 330 3 33 55 75 114 97 107 135 106 64 11 21 30 291 251 148 90 42 109 71 342 316 22 16 27 20 340 325 334 296 328 331 297 285 307 37 29 41 45 312 288 333 71 97 221 184 168 227 274 281 284 298 325 329 307 16 30 16 29 20 5 359 314 300 303 296 278 292 305 309 315 318 323 334 329 323 327 326 319 317 318 315 314 313 309
94 79 52 346 6 34 47 28 38 75 135 123 100 18 8 336 309 332 94 90 15 73 66 33 39 38 2 14 24 326 308 335 352 314 289 281 279 287 323 99 80 337 311 280 338 85 74 330 256 190 226 256 271 281 296 329 322 288 39 46 359 359 13 13 357 306 303 299 286 299 309 308 308 315 321 330 336 327 324 326 321 315 314 313 311 310 308 307
76 130 197 98 58 52 45 24 51 70 60 78 113 94 10 2 360 359 309 327 355 12 37 37 28 38 90 22 49 337 320 340 341 315 299 302 313 327 334 11 191 312 334 9 357 89 103 290 251 199 253 265 267 277 295 316 287 134 86 48 5 10 8 355 317 295 297 289 289 304 309 306 307 314 324 334 331 323 320 318 313 310 310 311 312 310 307 309
83 109 336 25 84 137 171 2 68 71 51 57 83 71 63 52 20 299 261 349 352 350 40 25 339 358 47 172 110 44 320 342 316 299 284 308 322 339 326 299 247 322 27 37 349 68 111 285 272 260 289 278 262 269 289 285 237 119 88 31 13 0 342 326 304 292 289 284 290 302 306 305 308 317 327 329 324 318 314 314 313 312 313 315 313 309 309 312
133 137 132 59 71 90 13 10 50 64 43 43 66 65 114 154 300 311 237 97 350 336 28 19 317 333 41 154 153 228 245 210 251 263 222 283 303 241 230 268 261 343 19 40 339 351 22 329 316 339 325 293 268 304 324 291 205 143 90 20 8 343 327 321 313 304 298 296 301 307 308 307 314 330 328 324 321 317 315 318 319 316 315 315 311 307 308 314
98 122 134 111 66 3 4 17 56 75 35 12 86 146 221 198 190 270 256 191 171 270 341 328 303 321 46 136 189 252 251 216 228 244 230 242 264 223 213 224 138 352 1 30 352 359 20 342 331 6 347 317 330 350 339 330 111 123 38 6 0 343 330 320 321 323 315 311 313 316 313 310 320 331 326 320 317 315 314 317 317 314 313 312 308 306 311 318
94 94 111 103 72 1 7 8 28 76 69 346 155 176 249 265 227 191 353 289 215 209 222 190 197 323 352 326 301 285 261 234 239 255 247 237 250 252 259 171 117 90 352 62 28 15 52 3 336 2 342 320 333 341 330 328 19 32 281 18 360 346 331 318 320 324 317 315 319 317 311 313 323 327 324 319 316 315 314 315 314 312 309 305 302 306 314 315